Time,TemperatureF,DewpointF,PressureIn,WindDirection,WindDirectionDegrees,WindSpeedMPH,WindSpeedGustMPH,Humidity,HourlyPrecipIn,Conditions,Clouds,dailyrainin,SolarRadiationWatts/m^2,SoftwareType,DateUTC
2013-06-27 00:02:00,50.0,23.0,-100.00,North,350,13.0,20.0,35,0.00,,,0.00,0.000000,,2013-06-27 07:02:00,
2013-06-27 00:34:00,50.0,23.0,-100.00,NNW,341,13.0,19.0,34,0.00,,,0.00,0.000000,,2013-06-27 07:34:00,
2013-06-27 00:42:00,50.0,23.0,-100.00,NNW,341,13.0,19.0,34,0.00,,,0.00,0.000000,,2013-06-27 07:42:00,
2013-06-27 00:52:00,50.0,23.0,-100.00,NNW,341,13.0,19.0,34,0.00,,,0.00,0.000000,,2013-06-27 07:52:00,
2013-06-27 01:01:00,50.0,23.0,-100.00,NNW,341,13.0,19.0,34,0.00,,,0.00,0.000000,,2013-06-27 08:01:00,
2013-06-27 01:34:00,49.0,23.0,-100.00,NNW,338,12.0,15.0,35,0.00,,,0.00,0.000000,,2013-06-27 08:34:00,
2013-06-27 01:43:00,49.0,23.0,-100.00,NNW,338,12.0,15.0,35,0.00,,,0.00,0.000000,,2013-06-27 08:43:00,
2013-06-27 01:52:00,49.0,23.0,-100.00,NNW,338,12.0,15.0,35,0.00,,,0.00,0.000000,,2013-06-27 08:52:00,
2013-06-27 02:02:00,49.0,23.0,-100.00,NNW,338,12.0,15.0,35,0.00,,,0.00,0.000000,,2013-06-27 09:02:00,
2013-06-27 02:34:00,48.0,24.0,-100.00,North,349,14.0,17.0,38,0.00,,,0.00,0.000000,,2013-06-27 09:34:00,
2013-06-27 02:43:00,48.0,24.0,-100.00,North,349,14.0,17.0,38,0.00,,,0.00,0.000000,,2013-06-27 09:43:00,
2013-06-27 02:53:00,48.0,24.0,-100.00,North,349,14.0,17.0,38,0.00,,,0.00,0.000000,,2013-06-27 09:53:00,
2013-06-27 03:01:00,48.0,24.0,-100.00,North,349,14.0,17.0,38,0.00,,,0.00,0.000000,,2013-06-27 10:01:00,
2013-06-27 03:32:00,48.0,24.0,-100.00,NNW,341,10.0,16.0,39,0.00,,,0.00,0.000000,,2013-06-27 10:32:00,
2013-06-27 03:44:00,48.0,24.0,-100.00,NNW,341,10.0,16.0,39,0.00,,,0.00,0.000000,,2013-06-27 10:44:00,
2013-06-27 03:54:00,48.0,24.0,-100.00,NNW,341,10.0,16.0,39,0.00,,,0.00,0.000000,,2013-06-27 10:54:00,
2013-06-27 04:01:00,48.0,24.0,-100.00,NNW,341,10.0,16.0,39,0.00,,,0.00,0.000000,,2013-06-27 11:01:00,
2013-06-27 04:33:00,49.0,24.0,-100.00,North,351,9.0,12.0,37,0.00,,,0.00,0.000000,,2013-06-27 11:33:00,
2013-06-27 04:43:00,49.0,24.0,-100.00,North,351,9.0,12.0,37,0.00,,,0.00,0.000000,,2013-06-27 11:43:00,
2013-06-27 04:52:00,49.0,24.0,-100.00,North,351,9.0,12.0,37,0.00,,,0.00,0.000000,,2013-06-27 11:52:00,
2013-06-27 05:01:00,49.0,24.0,-100.00,North,351,9.0,12.0,37,0.00,,,0.00,0.000000,,2013-06-27 12:01:00,
2013-06-27 05:34:00,50.0,24.0,-100.00,ENE,65,3.0,10.0,36,0.00,,,0.00,5.000000,,2013-06-27 12:34:00,
2013-06-27 05:42:00,50.0,24.0,-100.00,ENE,65,3.0,10.0,36,0.00,,,0.00,5.000000,,2013-06-27 12:42:00,
2013-06-27 06:01:00,50.0,24.0,-100.00,ENE,65,3.0,10.0,36,0.00,,,0.00,5.000000,,2013-06-27 13:01:00,
2013-06-27 06:34:00,52.0,27.0,-100.00,NE,34,8.0,10.0,37,0.00,,,0.00,126.000000,,2013-06-27 13:34:00,
2013-06-27 06:43:00,52.0,27.0,-100.00,NE,34,8.0,10.0,37,0.00,,,0.00,126.000000,,2013-06-27 13:43:00,
2013-06-27 06:52:00,52.0,27.0,-100.00,NE,34,8.0,10.0,37,0.00,,,0.00,126.000000,,2013-06-27 13:52:00,
2013-06-27 07:02:00,52.0,27.0,-100.00,NE,34,8.0,10.0,37,0.00,,,0.00,126.000000,,2013-06-27 14:02:00,
2013-06-27 07:33:00,56.0,27.0,-100.00,NE,53,8.0,14.0,33,0.00,,,0.00,326.000000,,2013-06-27 14:33:00,
2013-06-27 07:43:00,56.0,27.0,-100.00,NE,53,8.0,14.0,33,0.00,,,0.00,326.000000,,2013-06-27 14:43:00,
2013-06-27 07:52:00,56.0,27.0,-100.00,NE,53,8.0,14.0,33,0.00,,,0.00,326.000000,,2013-06-27 14:52:00,
2013-06-27 08:01:00,56.0,27.0,-100.00,NE,53,8.0,14.0,33,0.00,,,0.00,326.000000,,2013-06-27 15:01:00,
2013-06-27 08:33:00,59.0,28.0,-100.00,ENE,70,8.0,12.0,30,0.00,,,0.00,533.000000,,2013-06-27 15:33:00,
2013-06-27 08:42:00,59.0,28.0,-100.00,ENE,70,8.0,12.0,30,0.00,,,0.00,533.000000,,2013-06-27 15:42:00,
2013-06-27 08:52:00,59.0,28.0,-100.00,ENE,70,8.0,12.0,30,0.00,,,0.00,533.000000,,2013-06-27 15:52:00,
2013-06-27 09:02:00,59.0,28.0,-100.00,ENE,70,8.0,12.0,30,0.00,,,0.00,533.000000,,2013-06-27 16:02:00,
2013-06-27 09:34:00,61.0,28.0,-100.00,ESE,117,6.0,13.0,28,0.00,,,0.00,726.000000,,2013-06-27 16:34:00,
2013-06-27 09:43:00,61.0,28.0,-100.00,ESE,117,6.0,13.0,28,0.00,,,0.00,726.000000,,2013-06-27 16:43:00,
2013-06-27 09:53:00,61.0,28.0,-100.00,ESE,117,6.0,13.0,28,0.00,,,0.00,726.000000,,2013-06-27 16:53:00,
2013-06-27 10:01:00,61.0,28.0,-100.00,ESE,117,6.0,13.0,28,0.00,,,0.00,726.000000,,2013-06-27 17:01:00,
2013-06-27 10:33:00,62.0,27.0,-100.00,East,91,8.0,14.0,26,0.00,,,0.00,883.000000,,2013-06-27 17:33:00,
2013-06-27 10:43:00,62.0,27.0,-100.00,East,91,8.0,14.0,26,0.00,,,0.00,883.000000,,2013-06-27 17:43:00,
2013-06-27 10:53:00,62.0,27.0,-100.00,East,91,8.0,14.0,26,0.00,,,0.00,883.000000,,2013-06-27 17:53:00,
2013-06-27 11:01:00,62.0,27.0,-100.00,East,91,8.0,14.0,26,0.00,,,0.00,883.000000,,2013-06-27 18:01:00,
2013-06-27 11:32:00,66.0,23.0,-100.00,ENE,65,5.0,21.0,19,0.00,,,0.00,990.000000,,2013-06-27 18:32:00,
2013-06-27 11:44:00,66.0,23.0,-100.00,ENE,65,5.0,21.0,19,0.00,,,0.00,990.000000,,2013-06-27 18:44:00,
2013-06-27 11:52:00,66.0,23.0,-100.00,ENE,65,5.0,21.0,19,0.00,,,0.00,990.000000,,2013-06-27 18:52:00,
2013-06-27 12:01:00,66.0,23.0,-100.00,ENE,65,5.0,21.0,19,0.00,,,0.00,990.000000,,2013-06-27 19:01:00,
2013-06-27 12:34:00,65.0,22.0,-100.00,WSW,237,8.0,22.0,19,0.00,,,0.00,915.000000,,2013-06-27 19:34:00,
2013-06-27 12:42:00,65.0,22.0,-100.00,WSW,237,8.0,22.0,19,0.00,,,0.00,915.000000,,2013-06-27 19:42:00,
2013-06-27 12:53:00,65.0,22.0,-100.00,WSW,237,8.0,22.0,19,0.00,,,0.00,915.000000,,2013-06-27 19:53:00,
2013-06-27 13:01:00,65.0,22.0,-100.00,WSW,237,8.0,22.0,19,0.00,,,0.00,915.000000,,2013-06-27 20:01:00,
2013-06-27 13:39:00,65.0,26.0,-100.00,NNE,31,4.0,15.0,23,0.00,,,0.00,414.000000,,2013-06-27 20:39:00,
2013-06-27 13:48:00,65.0,26.0,-100.00,NNE,31,4.0,15.0,23,0.00,,,0.00,414.000000,,2013-06-27 20:48:00,
2013-06-27 13:55:00,65.0,26.0,-100.00,NNE,31,4.0,15.0,23,0.00,,,0.00,414.000000,,2013-06-27 20:55:00,
2013-06-27 14:03:00,65.0,26.0,-100.00,NNE,31,4.0,15.0,23,0.00,,,0.00,414.000000,,2013-06-27 21:03:00,
2013-06-27 14:36:00,68.0,22.0,-100.00,NE,44,7.0,16.0,17,0.00,,,0.00,725.000000,,2013-06-27 21:36:00,
2013-06-27 14:55:00,68.0,22.0,-100.00,NE,44,7.0,16.0,17,0.00,,,0.00,725.000000,,2013-06-27 21:55:00,
2013-06-27 15:06:00,68.0,22.0,-100.00,NE,44,7.0,16.0,17,0.00,,,0.00,725.000000,,2013-06-27 22:06:00,
2013-06-27 15:36:00,58.0,24.0,-100.00,West,272,16.0,29.0,27,0.00,,,0.00,237.000000,,2013-06-27 22:36:00,
2013-06-27 15:49:00,58.0,24.0,-100.00,West,272,16.0,29.0,27,0.00,,,0.00,237.000000,,2013-06-27 22:49:00,
2013-06-27 15:58:00,58.0,24.0,-100.00,West,272,16.0,29.0,27,0.00,,,0.00,237.000000,,2013-06-27 22:58:00,
2013-06-27 16:36:00,54.0,28.0,-100.00,NNW,338,13.0,41.0,36,0.00,,,-99.99,64.000000,,2013-06-27 23:36:00,
2013-06-27 16:58:00,54.0,28.0,-100.00,NNW,338,13.0,41.0,36,0.00,,,-99.99,64.000000,,2013-06-27 23:58:00,
2013-06-27 17:05:00,54.0,28.0,-100.00,NNW,338,13.0,41.0,36,0.00,,,-99.99,64.000000,,2013-06-28 00:05:00,
2013-06-27 17:37:00,51.0,28.0,-100.00,WNW,294,14.0,45.0,41,0.00,,,0.00,7.000000,,2013-06-28 00:37:00,
2013-06-27 17:46:00,51.0,28.0,-100.00,WNW,294,14.0,45.0,41,0.00,,,0.00,7.000000,,2013-06-28 00:46:00,
2013-06-27 17:56:00,51.0,28.0,-100.00,WNW,294,14.0,45.0,41,0.00,,,0.00,7.000000,,2013-06-28 00:56:00,
2013-06-27 18:05:00,51.0,28.0,-100.00,WNW,294,14.0,45.0,41,0.00,,,0.00,7.000000,,2013-06-28 01:05:00,
2013-06-27 18:48:00,54.0,24.0,-100.00,West,278,12.0,43.0,31,0.00,,,0.00,33.000000,,2013-06-28 01:48:00,
2013-06-27 18:57:00,54.0,24.0,-100.00,West,278,12.0,43.0,31,0.00,,,0.00,33.000000,,2013-06-28 01:57:00,
2013-06-27 19:04:00,54.0,24.0,-100.00,West,278,12.0,43.0,31,0.00,,,0.00,33.000000,,2013-06-28 02:04:00,
2013-06-27 19:50:00,53.0,25.0,-100.00,NNE,18,3.0,14.0,33,0.00,,,0.00,31.000000,,2013-06-28 02:50:00,
2013-06-27 19:57:00,53.0,25.0,-100.00,NNE,18,3.0,14.0,33,0.00,,,0.00,31.000000,,2013-06-28 02:57:00,
2013-06-27 20:46:00,54.0,22.0,-100.00,North,355,7.0,8.0,28,0.00,,,0.00,5.000000,,2013-06-28 03:46:00,
2013-06-27 20:56:00,54.0,22.0,-100.00,North,355,7.0,8.0,28,0.00,,,0.00,5.000000,,2013-06-28 03:56:00,
2013-06-27 21:02:00,54.0,22.0,-100.00,North,355,7.0,8.0,28,0.00,,,0.00,5.000000,,2013-06-28 04:02:00,
2013-06-27 21:33:00,53.0,22.0,-100.00,NE,36,8.0,11.0,30,0.00,,,0.00,0.000000,,2013-06-28 04:33:00,
2013-06-27 21:43:00,53.0,22.0,-100.00,NE,36,8.0,11.0,30,0.00,,,0.00,0.000000,,2013-06-28 04:43:00,
2013-06-27 21:53:00,53.0,22.0,-100.00,NE,36,8.0,11.0,30,0.00,,,0.00,0.000000,,2013-06-28 04:53:00,
2013-06-27 22:01:00,53.0,22.0,-100.00,NE,36,8.0,11.0,30,0.00,,,0.00,0.000000,,2013-06-28 05:01:00,
2013-06-27 22:33:00,52.0,23.0,-100.00,ENE,65,7.0,10.0,32,0.00,,,0.00,0.000000,,2013-06-28 05:33:00,
2013-06-27 22:43:00,52.0,23.0,-100.00,ENE,65,7.0,10.0,32,0.00,,,0.00,0.000000,,2013-06-28 05:43:00,
2013-06-27 22:53:00,52.0,23.0,-100.00,ENE,65,7.0,10.0,32,0.00,,,0.00,0.000000,,2013-06-28 05:53:00,
2013-06-27 23:02:00,52.0,23.0,-100.00,ENE,65,7.0,10.0,32,0.00,,,0.00,0.000000,,2013-06-28 06:02:00,
2013-06-27 23:34:00,51.0,26.0,-100.00,East,80,11.0,15.0,37,0.00,,,0.00,0.000000,,2013-06-28 06:34:00,
2013-06-27 23:43:00,51.0,26.0,-100.00,East,80,11.0,15.0,37,0.00,,,0.00,0.000000,,2013-06-28 06:43:00,
2013-06-27 23:52:00,51.0,26.0,-100.00,East,80,11.0,15.0,37,0.00,,,0.00,0.000000,,2013-06-28 06:52:00,